Cienfuegos, Cuba

4:36 PM CST on December 06, 2019 (GMT -0500)
Jaime Gonzalez

Weather History for MUCF - October, 2019

Change the Weather History Date:

Sunday, October 27, 2019

  Actual Average Record
Temperature  
Mean Temperature 80 °F -  
Max Temperature 89 °F - - ()
Min Temperature 71 °F - - ()
Cooling Degree Days 15    
Growing Degree Days 30 (Base 50)    
Moisture  
Dew Point 75 °F    
Average Humidity 87    
Maximum Humidity 100    
Minimum Humidity 62    
Precipitation  
Precipitation 0.00 in - - ()
Sea Level Pressure  
Sea Level Pressure 29.96 in    
Wind  
Wind Speed 5 mph ()    
Max Wind Speed 9 mph    
Max Gust Speed -    
Visibility 6.2 miles    
Events      
T = Trace of Precipitation, MM = Missing Value Source: Averaged Metar Reports

Daily Weather History Graph

Daily Weather History Graph

Search for Another Location

Airport or City:

Astronomy

Oct. 27, 2019 Rise Set
Actual Time 7:22 AM CDT 6:47 PM CDT
Civil Twilight 7:00 AM CDT 7:10 PM CDT
Nautical Twilight 6:33 AM CDT 7:36 PM CDT
Astronomical Twilight 6:07 AM CDT 8:03 PM CDT
Moon 6:42 AM CDT (10/27) 6:47 PM CDT (10/27)
Length of Visible Light 12h 10m
Length of Day
11h 24m
Waning Crescent, 0% of the Moon is Illuminated
Oct 27
Waning Crescent
Oct 27
New
Nov 4
First Quarter
Nov 12
Full
Nov 19
Last Quarter

Hourly Weather History & Observations

Time (CDT) Temp. Heat Index Dew Point Humidity Pressure Visibility Wind Dir Wind Speed Gust Speed Precip Events Conditions
12:59 AM 73.4 °F - 73.4 °F 100% 29.98 in - East 3.5 mph - N/A   Unknown
1:59 AM 73.4 °F - 73.4 °F 100% 29.98 in - NE 2.3 mph - N/A   Unknown
2:58 AM 73.4 °F - 73.4 °F 100% 29.98 in - East 3.5 mph - N/A   Unknown
3:58 AM 73.4 °F - 73.4 °F 100% 29.95 in - ENE 4.6 mph - N/A   Unknown
4:59 AM 71.6 °F - 71.6 °F 100% 29.95 in - East 3.5 mph - N/A   Unknown
5:59 AM 71.6 °F - 71.6 °F 100% 29.95 in - NE 4.6 mph - N/A   Unknown
6:58 AM 71.6 °F - 71.6 °F 100% 29.95 in - ENE 6.9 mph - N/A   Unknown
7:59 AM 73.4 °F - 71.6 °F 94% 29.98 in - ENE 8.1 mph - N/A   Unknown
8:50 AM 75.2 °F - 73.4 °F 94% 29.98 in 6.2 mi ENE 6.9 mph - N/A   Mostly Cloudy
9:50 AM 78.8 °F - 75.2 °F 89% 30.01 in 6.2 mi ENE 6.9 mph - N/A   Mostly Cloudy
10:50 AM 82.4 °F 90.9 °F 77.0 °F 84% 30.01 in 6.2 mi East 8.1 mph - N/A   Mostly Cloudy
11:50 AM 86.0 °F 96.9 °F 77.0 °F 74% 29.98 in 6.2 mi ENE 9.2 mph - N/A   Mostly Cloudy
12:51 PM 87.8 °F 99.7 °F 77.0 °F 70% 29.98 in 6.2 mi East 9.2 mph - N/A   Scattered Clouds
1:50 PM 89.6 °F 102.2 °F 77.0 °F 66% 29.95 in 6.2 mi East 8.1 mph - N/A   Scattered Clouds
2:50 PM 87.8 °F 99.7 °F 77.0 °F 70% 29.92 in 6.2 mi Variable 5.8 mph - N/A   Scattered Clouds
3:50 PM 89.6 °F 99.8 °F 75.2 °F 62% 29.92 in 6.2 mi SW 6.9 mph - N/A   Scattered Clouds
4:59 PM 87.8 °F 102.5 °F 78.8 °F 75% 29.92 in - SW 5.8 mph - N/A   Unknown
5:59 PM 86.0 °F 99.3 °F 78.8 °F 79% 29.92 in - SW 4.6 mph - N/A   Unknown
6:58 PM 82.4 °F 89.5 °F 75.2 °F 79% 29.92 in - East 5.8 mph - N/A   Unknown
7:58 PM 78.8 °F - 75.2 °F 89% 29.95 in - ENE 5.8 mph - N/A   Unknown
8:58 PM 78.8 °F - 75.2 °F 89% 29.98 in - Variable 2.3 mph - N/A   Unknown
9:59 PM 78.8 °F - 75.2 °F 89% 29.98 in - ENE 5.8 mph - N/A   Unknown
10:59 PM 78.8 °F - 75.2 °F 89% 30.01 in - ENE 5.8 mph - N/A   Unknown
11:59 PM 77.0 °F - 75.2 °F 94% 29.98 in - East 4.6 mph - N/A   Unknown